Regional Weather Roundup
Issued by NWS

Home | Current Version | Previous Version | Text Only | Print | Product List | Glossary On
Versions: 1 2 3 4 5 6 7 8 9 10 11 12 13 14 15 16 17 18 19 20 21 22 23 24 25 26 27 28 29 30 31 32 33 34 35 36 37 38 39 40 41 42 43 44 45 46 47 48 49 50
000
ASUS44 KBMX 292310
RWRAL

ALABAMA REGIONAL WEATHER ROUNDUP
NATIONAL WEATHER SERVICE BIRMINGHAM AL
600 PM CDT TUE JUL 29 2014

NOTE: "FAIR" INDICATES FEW OR NO CLOUDS BELOW 12,000 FEET
WITH NO SIGNIFICANT WEATHER AND/OR OBSTRUCTIONS TO VISIBILITY.

THE REMARK "TC" DENOTES TEMPERATURE IN DEGREES CELSIUS.

ALZ001>011-014-016>018-020-300000-
NORTH ALABAMA

CITY           SKY/WX    TMP DP  RH WIND       PRES   REMARKS
MUSCLE SHOALS  MOSUNNY   78  52  40 N7        30.09F
HUNTSVILLE     MOSUNNY   77  52  41 N9        30.07S
DECATUR        PTSUNNY   77  55  46 NW9       30.08S
HALEYVILLE     FAIR      74  55  51 N9        30.11F
GADSDEN        MOSUNNY   79  52  38 NW7       30.03S
$$

ALZ012-013-022-023-030>036-040>044-300000-
WEST CENTRAL ALABAMA

CITY           SKY/WX    TMP DP  RH WIND       PRES   REMARKS
TUSCALOOSA     MOSUNNY   82  54  37 N16       30.04R
$$

ALZ015-024>027-033>036-040>044-300000-
CENTRAL ALABAMA

CITY           SKY/WX    TMP DP  RH WIND       PRES   REMARKS
BIRMINGHAM     MOSUNNY   80  49  33 N13       30.05S
MONTGOMERY     PTSUNNY   86  61  42 NW9G18    29.99S
SHELBY CO ARPT MOSUNNY   80  55  42 NW12G18   30.02S
MAXWELL AFB    PTSUNNY   83  61  47 W8        29.98S
GREENVILLE     FAIR      85  59  41 NW8       29.99S
$$

ALZ019-021-028-029-037-038-045>048-300000-
EAST CENTRAL ALABAMA

CITY           SKY/WX    TMP DP  RH WIND       PRES   REMARKS
ANNISTON       MOSUNNY   80  52  37 N9        30.02S
ALEXANDER CITY SUNNY     83  52  34 N12       30.01S
AUBURN         MOSUNNY   79  57  47 N8        30.04R
$$

ALZ051>064-300000-
SOUTHWEST ALABAMA

CITY           SKY/WX    TMP DP  RH WIND       PRES   REMARKS
MOBILE         MOSUNNY   86  63  45 NW5       29.99F
BROOKLEY FIELD MOSUNNY   88  63  43 N8        29.99F
EVERGREEN      SUNNY     87  61  41 N7        29.99S
$$

ALZ049-050-065>069-300000-
SOUTHEAST ALABAMA

CITY           SKY/WX    TMP DP  RH WIND       PRES   REMARKS
DOTHAN         MOSUNNY   84  64  50 N9        30.00F
OZARK          SUNNY     85  62  45 NW7       29.96F
TROY           MOSUNNY   86  59  39 NW9       29.99S
EUFAULA        FAIR      86  61  42 CALM      29.96S
$$


USA.gov is the U.S. government's official web portal to all federal, state and local government web resources and services.